Wind_Speed
13 12 12 12 10 9 7 6 7 7 7 6 6 6 5 6 7 8 8 8 8 7 7 8 8 8 9 10 10 11 12 12 12 12 13 13 14 15 16 16 16 16 16 16 16 16 17 17 17
14 14 13 13 12 9 8 8 8 9 9 8 8 9 9 7 7 8 9 8 8 8 8 9 10 10 11 11 12 12 13 13 14 13 14 15 15 16 16 16 16 16 16 17 17 17 18 18 17
15 14 14 14 13 10 9 9 9 9 10 9 9 11 11 9 8 9 10 9 9 9 10 10 11 11 12 12 12 13 13 14 14 14 15 15 16 16 16 16 17 17 17 17 18 18 19 19 19
15 15 15 14 13 11 11 10 10 9 9 9 10 11 11 11 10 10 10 10 10 11 12 12 12 12 12 13 13 13 14 14 15 15 16 17 17 17 17 17 17 17 18 18 18 19 19 19 19
15 15 15 14 12 10 11 11 12 11 11 11 10 12 13 12 11 11 12 12 12 12 12 12 12 12 13 14 14 14 15 15 16 17 17 18 18 18 18 18 18 18 18 19 19 20 20 20 20
15 16 15 14 12 11 12 12 11 11 12 12 11 12 13 12 12 12 13 13 12 11 12 13 13 12 13 14 15 15 16 17 17 17 18 18 18 18 18 18 18 19 20 20 20 21 21 21 21
15 16 15 14 13 12 11 12 10 11 13 13 12 13 13 13 12 12 13 13 13 12 12 13 13 13 14 14 15 16 16 17 17 17 18 18 18 19 19 19 20 20 20 20 21 21 21 21 21
15 15 15 14 13 12 12 10 10 11 12 13 13 15 15 14 13 13 14 14 14 13 13 13 13 13 14 15 15 16 16 17 18 18 19 19 19 20 20 20 21 21 21 21 21 22 22 22 22
15 15 13 12 12 11 11 10 10 13 12 14 14 15 15 15 14 14 14 14 14 13 13 13 14 14 14 15 16 16 17 17 18 19 20 20 20 20 21 21 21 21 20 21 22 22 22 23 23
14 12 11 10 11 11 10 10 11 13 13 13 13 14 15 16 15 14 14 15 15 15 14 14 14 15 15 15 16 17 18 18 19 20 20 20 21 21 21 21 21 21 21 22 22 23 23 23 23
12 10 11 9 10 11 10 10 11 12 12 12 13 13 14 13 14 15 14 15 15 15 15 14 15 15 16 16 17 18 18 19 20 20 20 21 21 21 22 22 22 22 22 23 23 23 24 24 24
10 10 10 10 9 10 8 9 10 11 11 13 13 13 14 15 15 15 16 16 14 14 14 14 15 15 15 16 17 17 18 18 20 20 21 22 22 22 22 23 23 23 23 24 24 24 24 25 25
10 9 9 8 8 7 6 7 9 10 10 12 13 14 15 15 15 15 16 16 15 15 15 16 16 16 16 17 17 18 18 20 21 21 21 21 22 22 22 23 23 24 24 24 25 25 25 25 26
8 9 8 7 7 7 8 7 9 10 11 12 13 14 15 14 15 14 15 15 16 16 17 17 17 17 17 16 18 19 20 21 22 21 21 21 22 23 23 24 25 25 25 25 25 25 25 25 25
7 7 6 6 8 8 8 8 9 10 10 11 12 13 14 15 15 15 15 15 16 17 17 18 18 18 18 18 18 19 20 21 21 21 22 22 22 23 24 25 26 26 25 25 25 26 26 25 25
7 6 6 5 7 7 9 10 9 10 11 11 12 13 14 15 15 15 16 15 15 17 18 18 19 19 19 19 19 20 20 20 21 22 23 23 23 24 25 25 26 26 26 25 25 25 26 26 26
5 4 5 5 6 8 10 11 11 12 12 13 13 13 14 15 15 16 17 17 16 17 18 19 19 19 20 20 20 20 21 22 22 23 24 24 25 25 25 25 25 25 25 25 25 25 26 25 26
4 4 6 7 7 10 12 13 13 14 14 14 15 15 15 15 16 16 17 18 18 18 19 19 19 20 21 21 21 21 22 22 23 24 24 26 26 26 26 26 26 25 25 25 25 25 25 25 26
4 6 7 8 8 11 13 13 13 13 13 13 15 16 15 16 16 16 16 17 18 19 20 20 20 20 21 22 22 22 22 23 23 24 25 26 27 26 27 27 27 27 26 25 25 26 26 26 26
6 8 9 9 9 11 12 12 11 12 14 15 16 16 16 17 17 17 17 18 19 20 20 21 21 21 22 23 23 23 23 23 22 24 25 27 27 26 26 26 27 27 27 26 26 26 26 26 27
6 7 9 11 11 12 13 12 12 13 14 16 17 17 17 18 18 19 20 20 20 21 20 21 21 22 22 22 23 24 23 23 23 24 25 26 25 25 25 26 26 26 26 26 26 25 25 26 27
7 8 10 10 11 12 13 14 14 14 15 16 17 18 18 18 19 20 20 20 20 20 19 20 21 21 22 22 23 23 23 23 24 25 26 26 26 26 26 26 25 25 25 25 24 24 25 25 25
8 9 11 11 12 13 13 14 14 14 15 16 17 18 19 19 20 20 21 20 20 20 19 20 21 22 22 22 22 22 23 24 24 25 25 26 26 26 25 24 23 23 24 24 24 23 23 23 24
10 11 12 12 13 13 13 15 14 14 15 16 17 19 20 20 20 21 21 22 21 20 20 21 22 23 23 23 23 23 23 23 24 24 25 26 25 25 23 23 23 22 22 23 22 22 22 22 22
11 12 13 13 13 13 13 14 15 16 16 17 17 19 20 20 20 21 23 22 21 21 21 21 21 22 23 23 24 23 22 22 23 24 24 25 24 22 22 22 22 22 22 22 22 21 21 21 22
12 12 13 14 14 14 15 16 16 16 17 17 17 18 19 21 21 21 23 22 21 21 21 20 21 22 22 23 23 23 22 22 23 23 24 23 22 22 22 21 21 22 22 22 21 21 21 21 21
14 14 14 15 15 15 17 18 17 16 17 18 18 19 19 21 21 21 22 22 20 19 20 20 21 23 23 23 22 22 22 23 23 23 23 22 21 21 21 21 21 21 21 21 20 20 21 21 22
14 14 15 15 16 16 17 18 18 17 18 18 19 20 20 20 21 21 21 21 21 21 20 20 20 22 23 23 22 22 23 23 23 23 22 21 21 21 20 20 20 21 21 20 20 20 21 21 22
14 15 16 16 16 17 18 18 18 18 18 19 19 20 20 20 20 20 21 21 21 21 21 20 20 21 22 22 22 22 23 23 23 22 21 21 21 20 20 20 20 20 20 21 20 19 19 20 20
14 14 15 16 17 17 18 19 18 18 18 19 19 19 20 21 22 22 22 20 19 20 20 20 20 21 21 21 21 22 22 22 21 21 22 21 20 20 20 20 20 20 21 20 20 18 17 18 18
Wind_Direction
219 220 221 219 218 217 212 221 236 253 263 271 283 290 283 296 307 312 315 314 314 314 310 306 302 296 296 296 298 297 297 296 293 296 298 297 296 296 297 297 298 297 296 295 294 294 294 293 288
220 221 222 221 219 216 211 217 234 252 263 272 279 284 284 291 300 307 305 303 305 304 302 301 297 291 292 293 291 291 292 293 289 290 293 293 293 292 293 294 296 295 294 293 292 291 291 290 288
218 222 222 220 219 215 213 221 233 243 259 262 269 281 281 285 292 296 297 296 299 300 299 300 297 292 292 292 290 290 291 291 290 289 291 291 290 290 291 292 292 292 291 291 290 289 289 287 285
217 219 219 216 214 216 218 228 239 245 257 261 267 277 281 284 287 290 291 293 294 294 296 297 296 295 292 292 292 292 292 291 290 290 290 290 290 289 288 288 289 289 289 289 287 287 287 284 285
218 216 216 212 209 213 216 227 238 247 259 263 273 280 284 284 286 288 291 292 292 290 293 296 296 295 293 293 293 293 292 292 292 292 292 291 290 289 287 287 288 287 288 289 287 287 285 286 285
220 221 219 215 213 214 221 233 242 251 264 271 276 277 280 280 284 288 292 295 298 296 295 292 292 294 295 293 292 293 293 292 292 294 293 292 293 291 289 289 290 288 288 287 286 285 286 286 285
219 221 218 214 211 216 226 237 247 260 265 270 276 277 285 287 287 287 289 290 295 297 296 291 290 293 294 294 294 294 293 292 292 292 292 291 292 291 290 291 291 289 289 286 285 284 285 286 284
216 218 217 222 223 219 219 236 257 268 267 269 274 278 284 285 288 289 289 290 294 293 291 294 295 295 293 292 292 293 294 294 293 291 290 289 290 291 292 291 291 290 290 288 286 285 285 284 283
214 214 216 223 225 221 223 241 255 272 275 271 275 277 283 283 285 289 292 293 294 293 293 292 294 294 292 291 294 292 291 292 291 289 290 290 291 291 292 292 291 291 289 289 288 287 284 283 281
213 215 213 215 218 220 229 245 260 268 270 272 277 279 282 284 284 289 291 291 291 292 293 290 292 292 293 294 295 296 294 290 293 291 292 294 293 291 291 292 292 293 292 291 291 287 284 283 282
211 210 208 210 217 223 232 247 261 268 267 270 275 279 284 284 284 285 288 290 289 289 291 289 293 292 294 294 295 296 295 296 295 293 294 296 295 292 291 291 291 292 291 291 291 289 287 286 284
207 206 206 208 210 219 234 247 263 274 275 271 274 280 286 287 293 293 290 288 287 289 292 295 293 292 291 290 291 292 295 294 295 295 296 296 295 293 292 293 293 291 291 292 291 290 288 285 283
203 199 194 197 201 216 232 251 263 273 275 278 275 280 292 293 300 301 298 294 292 291 291 292 295 297 292 290 292 293 294 295 295 296 297 296 296 295 293 293 292 290 291 291 291 289 288 285 281
194 197 197 196 210 228 242 265 273 279 280 280 281 284 288 291 294 297 300 300 297 296 294 296 300 300 299 300 300 299 299 299 298 299 298 297 295 294 292 293 292 291 290 289 289 288 287 285 281
196 201 204 208 221 235 255 268 271 279 281 282 283 287 292 296 294 296 298 301 299 297 299 301 302 303 304 304 302 301 303 302 301 300 299 298 297 295 292 291 291 290 289 290 290 289 286 283 281
190 205 207 207 228 251 266 272 270 273 277 281 286 289 290 295 298 296 296 297 297 297 298 300 300 302 303 301 302 302 301 300 299 299 299 299 298 296 295 293 291 289 288 288 290 290 288 285 282
208 227 230 223 239 262 269 275 273 275 280 284 287 287 290 295 297 295 296 293 292 294 296 298 299 301 302 301 301 301 299 298 299 299 300 300 299 297 295 294 291 289 289 288 288 288 289 287 284
217 241 245 244 255 267 275 279 278 282 285 289 293 290 287 290 294 294 293 294 293 296 297 297 299 302 301 302 303 302 301 300 299 299 299 302 301 297 296 295 292 290 289 287 286 288 288 286 284
257 269 265 267 266 268 273 276 282 286 285 288 289 286 285 289 292 292 289 291 293 296 298 298 301 302 301 303 303 303 302 301 299 298 300 300 300 299 298 297 292 292 289 288 287 286 286 286 284
292 283 282 278 269 266 266 271 273 280 282 283 285 284 285 285 289 292 292 292 295 297 297 299 300 301 301 301 302 302 303 302 300 301 303 302 301 300 300 299 296 296 295 293 290 286 285 285 285
298 290 287 281 274 268 268 270 272 278 281 287 291 291 288 286 289 291 291 296 299 300 299 300 302 302 302 303 304 305 303 302 303 302 302 303 303 302 301 299 299 298 299 296 291 288 286 286 286
303 288 284 287 277 273 273 273 278 286 289 294 298 298 295 292 293 295 294 294 301 301 299 301 304 304 305 305 305 304 304 304 306 305 303 304 302 300 300 300 299 299 300 298 295 292 289 289 289
305 294 290 290 283 277 277 280 283 291 298 298 298 298 295 294 293 293 295 296 301 299 297 300 302 304 304 303 304 304 305 305 306 306 306 307 306 303 301 301 300 300 300 299 297 294 291 292 292
310 304 299 292 289 282 279 280 284 293 297 296 297 297 295 293 293 293 296 299 301 298 297 298 300 302 303 303 304 304 305 306 306 306 307 309 308 306 306 303 302 302 301 300 297 295 295 296 297
302 301 299 293 286 285 284 284 288 295 298 297 299 300 297 293 294 296 299 299 300 296 296 297 297 299 301 301 303 303 305 305 306 307 308 309 310 308 307 305 305 303 302 301 299 298 298 298 298
299 299 297 295 292 289 285 287 290 295 297 301 303 302 297 296 298 298 303 301 303 298 296 296 296 298 300 302 303 305 307 305 305 307 309 311 311 309 307 307 307 305 305 303 301 300 300 300 299
299 296 293 294 294 292 289 291 292 298 300 300 302 301 299 299 301 301 304 301 303 300 294 296 297 298 300 304 305 304 305 305 305 306 308 309 311 310 309 309 309 308 307 305 303 302 303 303 301
299 297 296 296 298 295 296 297 295 296 297 297 298 301 300 300 300 303 304 302 302 306 305 303 303 303 302 304 305 305 304 303 304 304 306 308 310 310 308 309 310 310 308 305 304 304 304 304 302
304 301 301 302 302 299 298 298 301 298 298 299 297 299 300 301 303 305 305 303 304 305 305 305 306 306 306 306 305 305 306 302 302 304 304 306 308 309 309 308 308 309 308 306 305 305 307 306 304
311 305 304 306 305 301 297 301 304 303 302 301 300 299 300 304 306 305 305 305 306 306 306 306 306 307 308 306 307 308 308 308 304 303 303 303 305 305 309 309 307 306 308 308 308 308 309 308 308
Height
5890 5892 5893 5895 5897 5899 5899 5900 5899 5899 5899 5899 5899 5900 5901 5902 5903 5906 5904 5902 5901 5900 5900 5899 5899 5899 5898 5898 5897 5897 5896 5895 5894 5893 5892 5892 5891 5890 5889 5887 5886 5885 5884 5883 5881 5880 5879 5877 5876
5888 5890 5892 5894 5895 5896 5898 5898 5898 5898 5898 5898 5898 5898 5899 5900 5901 5902 5901 5901 5899 5899 5898 5898 5898 5897 5897 5896 5896 5895 5894 5893 5892 5891 5890 5889 5889 5888 5886 5885 5884 5883 5881 5880 5878 5877 5876 5874 5873
5885 5887 5890 5891 5893 5895 5896 5896 5897 5896 5896 5897 5897 5897 5897 5898 5899 5899 5899 5899 5898 5898 5897 5896 5896 5895 5895 5894 5893 5892 5892 5891 5890 5889 5888 5887 5886 5885 5884 5883 5881 5880 5879 5877 5875 5874 5873 5871 5870
5883 5885 5887 5889 5890 5893 5894 5894 5895 5895 5895 5896 5896 5896 5895 5896 5897 5897 5897 5897 5897 5896 5895 5894 5894 5893 5892 5892 5891 5890 5889 5888 5887 5886 5885 5884 5883 5882 5881 5880 5878 5877 5875 5873 5872 5870 5869 5868 5866
5880 5882 5884 5886 5888 5890 5891 5892 5893 5893 5893 5894 5894 5893 5893 5893 5894 5894 5895 5895 5894 5893 5893 5892 5891 5891 5890 5889 5888 5887 5887 5885 5884 5883 5882 5881 5880 5878 5877 5876 5875 5873 5872 5870 5868 5867 5865 5863 5862
5878 5880 5882 5884 5886 5887 5889 5890 5890 5891 5891 5891 5891 5891 5891 5891 5892 5892 5892 5892 5892 5891 5890 5889 5889 5888 5888 5887 5886 5885 5884 5882 5881 5880 5879 5878 5876 5875 5873 5872 5870 5869 5867 5866 5864 5863 5861 5860 5858
5876 5877 5880 5882 5883 5885 5887 5887 5888 5888 5888 5888 5889 5888 5888 5889 5889 5890 5889 5889 5889 5889 5888 5887 5886 5886 5885 5884 5883 5882 5881 5879 5878 5877 5875 5874 5872 5871 5869 5868 5866 5865 5863 5861 5860 5858 5857 5855 5854
5873 5876 5878 5880 5882 5883 5885 5885 5885 5886 5886 5887 5887 5886 5887 5887 5887 5887 5887 5886 5886 5885 5885 5884 5883 5883 5882 5881 5880 5878 5877 5876 5874 5873 5871 5870 5868 5866 5865 5863 5861 5860 5858 5856 5855 5853 5852 5850 5848
5871 5875 5877 5878 5880 5882 5882 5882 5883 5883 5883 5884 5884 5884 5884 5884 5884 5883 5883 5883 5883 5882 5882 5881 5880 5879 5878 5877 5876 5875 5873 5872 5870 5868 5867 5865 5864 5862 5860 5858 5856 5854 5852 5851 5849 5848 5846 5844 5843
5869 5873 5875 5877 5878 5879 5879 5879 5880 5881 5882 5882 5881 5881 5881 5881 5881 5880 5880 5880 5880 5879 5879 5877 5877 5875 5874 5873 5872 5871 5869 5867 5866 5864 5862 5860 5859 5857 5855 5853 5851 5849 5847 5845 5844 5842 5840 5839 5837
5867 5870 5872 5874 5875 5876 5876 5877 5878 5878 5879 5879 5879 5879 5878 5878 5878 5877 5877 5876 5876 5876 5875 5874 5873 5872 5871 5869 5868 5866 5864 5863 5862 5860 5858 5855 5853 5852 5850 5848 5846 5844 5842 5840 5838 5837 5835 5833 5831
5866 5869 5870 5871 5872 5873 5873 5874 5875 5876 5876 5877 5876 5875 5875 5874 5874 5874 5873 5872 5872 5872 5872 5871 5870 5868 5867 5866 5864 5862 5861 5859 5857 5855 5853 5851 5848 5847 5845 5843 5841 5839 5837 5835 5833 5831 5829 5827 5825
5865 5867 5869 5870 5870 5870 5871 5872 5873 5873 5873 5874 5873 5873 5872 5872 5871 5871 5870 5868 5868 5868 5868 5867 5866 5865 5863 5861 5860 5858 5856 5854 5852 5850 5848 5845 5843 5841 5839 5837 5835 5833 5831 5829 5827 5825 5823 5821 5819
5864 5866 5867 5868 5868 5868 5869 5870 5871 5871 5871 5871 5871 5870 5870 5869 5869 5868 5866 5865 5865 5864 5863 5862 5861 5859 5857 5856 5854 5852 5851 5849 5847 5845 5842 5840 5838 5836 5833 5831 5829 5827 5825 5823 5821 5819 5817 5815 5813
5863 5864 5866 5867 5867 5867 5867 5868 5869 5869 5868 5868 5868 5868 5867 5866 5865 5865 5864 5862 5861 5860 5859 5858 5857 5855 5853 5851 5849 5847 5845 5843 5842 5839 5837 5835 5832 5830 5827 5825 5823 5820 5818 5816 5814 5812 5810 5808 5806
5862 5863 5865 5866 5865 5865 5867 5866 5867 5866 5865 5865 5865 5865 5865 5864 5863 5862 5860 5859 5858 5857 5855 5854 5853 5851 5849 5847 5845 5843 5841 5838 5836 5834 5831 5829 5826 5823 5821 5818 5816 5813 5811 5809 5808 5806 5803 5801 5799
5862 5862 5863 5864 5864 5863 5863 5863 5863 5863 5862 5863 5862 5862 5862 5861 5860 5859 5858 5856 5855 5853 5852 5850 5848 5846 5844 5842 5840 5837 5835 5833 5831 5828 5826 5823 5820 5817 5814 5812 5809 5806 5804 5802 5801 5799 5796 5794 5792
5860 5860 5861 5861 5861 5861 5860 5860 5860 5860 5860 5860 5859 5859 5858 5857 5856 5855 5854 5852 5851 5850 5848 5846 5844 5842 5840 5837 5835 5832 5830 5828 5826 5823 5819 5817 5814 5811 5808 5806 5803 5800 5797 5795 5793 5791 5789 5787 5785
5858 5858 5859 5859 5859 5858 5858 5857 5857 5857 5857 5856 5856 5855 5854 5852 5851 5850 5849 5848 5846 5845 5843 5842 5840 5838 5835 5832 5830 5827 5825 5823 5820 5817 5814 5811 5808 5805 5802 5799 5796 5793 5790 5788 5786 5784 5782 5780 5778
5856 5856 5856 5856 5856 5855 5855 5854 5854 5854 5853 5853 5852 5851 5849 5849 5847 5846 5844 5843 5842 5840 5839 5837 5835 5833 5830 5827 5825 5822 5820 5817 5814 5812 5808 5805 5802 5799 5795 5792 5789 5787 5784 5781 5779 5777 5774 5772 5770
5854 5854 5853 5853 5852 5852 5852 5852 5851 5851 5850 5849 5848 5847 5846 5845 5843 5842 5841 5839 5837 5836 5834 5832 5830 5827 5825 5822 5819 5817 5814 5812 5809 5806 5803 5799 5796 5792 5789 5786 5783 5780 5777 5775 5772 5769 5767 5765 5763
5852 5851 5850 5849 5849 5849 5849 5848 5848 5847 5847 5846 5844 5843 5841 5840 5839 5838 5836 5834 5832 5831 5829 5827 5825 5822 5820 5817 5814 5811 5808 5806 5804 5800 5797 5793 5790 5787 5783 5780 5776 5773 5771 5768 5765 5763 5761 5758 5756
5849 5848 5847 5847 5846 5846 5846 5845 5845 5844 5843 5842 5840 5838 5837 5836 5834 5832 5830 5828 5827 5825 5823 5821 5819 5817 5815 5812 5809 5806 5804 5801 5798 5794 5791 5787 5784 5780 5777 5773 5770 5767 5765 5762 5759 5757 5755 5752 5750
5846 5846 5845 5844 5844 5843 5843 5842 5841 5840 5839 5837 5835 5833 5832 5830 5829 5827 5825 5823 5820 5818 5818 5816 5814 5812 5809 5806 5804 5801 5798 5795 5792 5789 5785 5781 5778 5774 5771 5768 5765 5762 5759 5756 5753 5751 5749 5746 5744
5845 5844 5843 5841 5840 5840 5840 5838 5838 5836 5834 5832 5830 5828 5826 5825 5824 5822 5819 5817 5815 5813 5812 5810 5808 5806 5804 5801 5798 5794 5792 5789 5786 5783 5780 5776 5772 5768 5765 5762 5759 5756 5753 5750 5748 5746 5743 5740 5738
5842 5842 5841 5839 5837 5836 5835 5834 5834 5832 5830 5828 5826 5824 5822 5821 5819 5817 5815 5813 5810 5808 5807 5804 5802 5800 5797 5794 5791 5789 5786 5783 5781 5777 5774 5771 5767 5763 5760 5757 5754 5751 5748 5745 5743 5740 5738 5735 5732
5840 5838 5838 5836 5834 5833 5831 5830 5829 5828 5826 5823 5821 5820 5818 5816 5814 5812 5811 5808 5806 5803 5801 5798 5796 5794 5792 5789 5786 5784 5781 5778 5775 5772 5769 5765 5762 5758 5755 5752 5749 5746 5743 5740 5738 5735 5732 5729 5726
5837 5835 5834 5832 5830 5828 5828 5826 5825 5823 5821 5819 5817 5815 5813 5812 5810 5808 5806 5803 5800 5797 5796 5793 5791 5789 5786 5783 5781 5778 5775 5772 5769 5766 5763 5760 5756 5753 5750 5748 5745 5742 5739 5736 5733 5730 5726 5724 5721
5834 5833 5830 5829 5826 5824 5823 5824 5821 5818 5816 5814 5812 5810 5809 5807 5805 5803 5800 5797 5794 5792 5790 5788 5786 5783 5781 5779 5776 5773 5769 5766 5763 5760 5757 5754 5751 5748 5746 5743 5740 5737 5734 5731 5727 5724 5721 5719 5716
5831 5829 5827 5826 5823 5821 5819 5820 5816 5814 5812 5809 5808 5806 5804 5802 5800 5798 5795 5792 5790 5787 5785 5783 5781 5778 5776 5773 5770 5767 5764 5760 5757 5754 5751 5749 5746 5744 5741 5738 5735 5732 5729 5726 5723 5720 5717 5714 5711